sat.trackr.live / text

‹ back to catalog

YAOGAN-14

NORAD 38257 · 2012-021A

PAYLOAD ACTIVE UNKNOWN

§ Identity

Operator
Country
PRC
Launch date
2012-05-10
Launch site
TAISC
Launch vehicle
Mass (kg)
RCS (m²)
5.41

External: N2YO · Heavens-Above · Gunter

§ Orbital elements

Epoch: 2026-05-25T05:41:40.415712Z

Period
94.26 min
Inclination
97.2998°
Eccentricity
0.0003556
Mean motion
15.27633809 rev/d
Perigee alt
480.4 km
Apogee alt
485.3 km
Semi-major
6,861.0 km
B*
1.6332e-4
RAAN
282.9897°
Arg perigee
258.7192°
Mean anomaly
101.3648°
Rev number
78,231

§ Raw data

YAOGAN-141 38257U 12021A   26145.23727333  .00004339  00000+0  16332-3 0  99952 38257  97.2998 282.9897 0003556 258.7192 101.3648 15.27633809782317

JSON: /api/v1/satellites/38257 · /tle

For live sub-satellite position, see the globe view (requires WebGL).

§ Visibility from observer

Set your observer location to see the next 7 days of passes ≥ 10°. The values pass through the URL so the page stays shareable.

No JS? Fill the form by hand. The geolocation button needs JavaScript.